Other Public Products
Issued by NWS Charleston, SC

Current Version | Previous Version | Graphics & Text | Print | Product List | Glossary On
Versions: 1 2 3 4 5 6 7 8 9 10 11 12 13 14 15 16 17 18 19 20 21 22 23 24 25 26 27 28 29 30 31 32 33 34 35 36 37 38 39 40 41 42 43 44 45 46 47 48 49 50
127 FPUS82 KCHS 202140 OPUCHS TEST...KCHS/KSAV Gateway Observations...TEST National Weather Service Charleston SC 500 PM EDT WED SEP 20 2017 NOTE: "fair" indicates few or no clouds below 12,000 feet with no significant weather and/or obstructions to visibility. SCZ050-WAZ558-NCZ071-TXZ119-213-PAZ071-DCZ001-FLZ074-172-MI076- NYZ176-178-MAZ016-IL014-TNZ027-NJZ106-GAZ044-MD014-202200- ...Gateway Observations for Charleston International... CITY SKY/WX TMP DP RH WIND PRES REMARKS Chas Airport MOSUNNY 87 70 56 SE7 29.96S HX 92 Seattle PTSUNNY 54 48 80 S10 29.73S Charlotte MOSUNNY 89 67 47 CALM 29.98F HX 92 Dallas DFW MOSUNNY 99 71 40 S16 29.80F HX 107 Dallas Love MOSUNNY 96 70 42 S17G26 29.81F HX 102 Philladelphia MOSUNNY 86 61 42 N15 29.88R Wash National MOSUNNY 87 63 44 NW7 29.92S Baltimore MOSUNNY 86 61 42 NW10 29.91R Miami MOSUNNY 88 73 61 E9 29.92S HX 95 Detroit MOSUNNY 81 68 64 S8 29.98F Newark PTSUNNY 79 63 57 N15G25 29.89R Laguardia CLOUDY 78 66 66 N14G23 29.88R J F K PTSUNNY 79 65 62 N18 29.88R Boston Logan CLOUDY 68 67 96 N21G31 29.86R FOG Ft. Lauderdale MOSUNNY 88 74 63 SE8 29.92F HX 96 Chicago O`Hare MOSUNNY 92 67 43 S21G26 29.85F HX 95 Chicago Midway MOSUNNY 92 67 43 S16G24 29.86F HX 95 Houston Bush PTSUNNY 90 76 63 S9 29.88F HX 101 Houston Hobby CLOUDY 88 74 63 VRB3 29.89F THUNDER HX 96 Nashville PTSUNNY 87 70 56 E8 29.99F HX 92 Atlanta PTSUNNY 88 63 43 N8 30.01F $$ GAZ044-118-TXZ119-213-NCZ071-DCZ001-MDZ014-506-PAZ021-071-NJZ106- NYZ176-178-MAZ106-OHZ011-021-055-MIZ076-KYZ091-ILZ014-INZ047- MNZ060-ONZ431-202200- ...Gateway Observations for Savannah International... CITY SKY/WX TMP DP RH WIND PRES REMARKS Savannah Arpt PTSUNNY 86 72 62 E12 29.96S THUNDER HX 92 Atlanta PTSUNNY 88 63 43 N8 30.01F Charlotte MOSUNNY 89 67 47 CALM 29.98F HX 92 Dallas DFW MOSUNNY 99 71 40 S16 29.80F HX 107 Houston Bush PTSUNNY 90 76 63 S9 29.88F HX 101 Wash National MOSUNNY 87 63 44 NW7 29.92S Wash Dulles SUNNY 86 58 38 NW9 29.93F Baltimore MOSUNNY 86 61 42 NW10 29.91R Philadelphia MOSUNNY 86 61 42 N15 29.88R Newark PTSUNNY 79 63 57 N15G25 29.89R Laguardia CLOUDY 78 66 66 N14G23 29.88R J F K PTSUNNY 79 65 62 N18 29.88R Boston CLOUDY 68 67 96 N21G31 29.86R FOG Pittsburg CLOUDY 81 64 56 SE5 30.01S Akron PTSUNNY 86 63 45 W7 30.01S Cleveland MOSUNNY 84 65 52 N9 30.01S Cincinnati CLOUDY 84 69 60 W7 30.00F Columbus PTSUNNY 82 65 55 CALM 29.99S Detroit MOSUNNY 81 68 64 S8 29.98F Chicago O`Hare MOSUNNY 92 67 43 S21G26 29.85F HX 95 Minneapolis MOSUNNY 75 52 44 NW9 29.83R Indianapolis MOSUNNY 89 68 49 S6 29.97S HX 93 Toronto Canada MOSUNNY 75 66 73 SE7 30.02R $$

USA.gov is the U.S. government's official web portal to all federal, state and local government web resources and services.